APG326 RPLL-RPSP

Flight info

Callsign APG326
Flight time 1h 4m
Altitude 33000
Route IPATA2R IPATA W25 BATAY BATAY1P
Aircraft A320/M-SDE3FGHIRWY/LB1

Departure

Time 2026-04-19 05:31
Airport Ninoy Aquino International Airport (RPLL)

Arrival

Time 2026-04-19 06:36
Airport Bohol-Panglao International Airport (RPSP)
Time Latitude Longitude Altitude Speed Heading
2026-04-19 05:16 14.50368 121.00475 69 ft 0 kts 308°
2026-04-19 05:23 14.50358 121.00487 59 ft 2 kts 308°
2026-04-19 05:23 14.50352 121.00495 60 ft 2 kts 308°
2026-04-19 05:24 14.50346 121.00503 65 ft 2 kts 308°
2026-04-19 05:24 14.50335 121.00517 62 ft 2 kts 308°
2026-04-19 05:24 14.50325 121.00532 64 ft 3 kts 281°
2026-04-19 05:25 14.50325 121.00550 63 ft 3 kts 245°
2026-04-19 05:25 14.50327 121.00555 67 ft 0 kts 236°
2026-04-19 05:26 14.50323 121.00548 59 ft 5 kts 236°
2026-04-19 05:26 14.50304 121.00515 65 ft 5 kts 242°
2026-04-19 05:26 14.50290 121.00488 62 ft 4 kts 240°
2026-04-19 05:26 14.50274 121.00459 63 ft 9 kts 240°
2026-04-19 05:27 14.50235 121.00391 65 ft 8 kts 240°
2026-04-19 05:27 14.50206 121.00341 64 ft 7 kts 231°
2026-04-19 05:27 14.50157 121.00335 64 ft 12 kts 167°
2026-04-19 05:27 14.50086 121.00275 63 ft 14 kts 240°
2026-04-19 05:28 14.50055 121.00218 64 ft 13 kts 240°
2026-04-19 05:28 14.50003 121.00122 65 ft 10 kts 240°
2026-04-19 05:28 14.49981 121.00081 60 ft 9 kts 240°
2026-04-19 05:28 14.49952 121.00029 64 ft 7 kts 240°
2026-04-19 05:29 14.49927 120.99986 67 ft 8 kts 232°
2026-04-19 05:29 14.49874 120.99970 62 ft 8 kts 161°
2026-04-19 05:29 14.49827 120.99991 66 ft 8 kts 152°
2026-04-19 05:29 14.49803 121.00037 64 ft 8 kts 92°
2026-04-19 05:30 14.49813 121.00059 67 ft 0 kts 59°
2026-04-19 05:30 14.49860 121.00141 61 ft 46 kts 60°
2026-04-19 05:31 14.50133 121.00637 65 ft 110 kts 61°
2026-04-19 05:31 14.50609 121.01483 60 ft 160 kts 59°
2026-04-19 05:31 14.51195 121.02551 432 ft 174 kts 64°
2026-04-19 05:31 14.51763 121.03678 1057 ft 180 kts 65°
2026-04-19 05:32 14.52346 121.04838 1639 ft 186 kts 62°
2026-04-19 05:32 14.53035 121.06064 1973 ft 209 kts 60°
2026-04-19 05:32 14.53810 121.07413 2285 ft 228 kts 60°
2026-04-19 05:32 14.54648 121.08873 2650 ft 250 kts 61°
2026-04-19 05:33 14.55463 121.10526 3194 ft 264 kts 75°
2026-04-19 05:33 14.55610 121.12410 3985 ft 266 kts 101°
2026-04-19 05:33 14.54915 121.14171 4811 ft 269 kts 127°
2026-04-19 05:33 14.53611 121.15581 5613 ft 274 kts 135°
2026-04-19 05:34 14.52221 121.16946 6407 ft 278 kts 136°
2026-04-19 05:34 14.50808 121.18322 7155 ft 282 kts 136°
2026-04-19 05:34 14.49373 121.19723 7910 ft 285 kts 136°
2026-04-19 05:34 14.47929 121.21139 8683 ft 288 kts 136°
2026-04-19 05:35 14.46468 121.22573 9441 ft 292 kts 136°
2026-04-19 05:35 14.44991 121.24026 10136 ft 296 kts 136°
2026-04-19 05:35 14.44502 121.24507 10260 ft 303 kts 136°
2026-04-19 05:35 14.44144 121.24856 10297 ft 307 kts 137°
2026-04-19 05:36 14.42584 121.26359 10406 ft 303 kts 135°
2026-04-19 05:36 14.41097 121.27860 10523 ft 296 kts 135°
2026-04-19 05:36 14.39651 121.29335 10642 ft 289 kts 135°
2026-04-19 05:36 14.38232 121.30776 10762 ft 283 kts 135°
2026-04-19 05:37 14.36834 121.32179 10878 ft 278 kts 135°
2026-04-19 05:37 14.35453 121.33552 11000 ft 274 kts 135°
2026-04-19 05:37 14.34084 121.34901 11115 ft 270 kts 135°
2026-04-19 05:37 14.32736 121.36225 11235 ft 266 kts 135°
2026-04-19 05:38 14.31411 121.37530 11351 ft 261 kts 135°
2026-04-19 05:38 14.30115 121.38807 11466 ft 255 kts 135°
2026-04-19 05:38 14.28842 121.40055 11584 ft 250 kts 135°
2026-04-19 05:38 14.27599 121.41274 11702 ft 244 kts 135°
2026-04-19 05:39 14.26381 121.42469 11841 ft 240 kts 135°
2026-04-19 05:39 14.25204 121.43625 12240 ft 228 kts 134°
2026-04-19 05:39 14.24072 121.44753 12347 ft 229 kts 133°
2026-04-19 05:39 14.22911 121.45929 12199 ft 243 kts 134°
2026-04-19 05:40 14.21703 121.47158 12472 ft 235 kts 133°
2026-04-19 05:40 14.20573 121.48317 12738 ft 228 kts 132°
2026-04-19 05:40 14.19432 121.49508 12572 ft 241 kts 132°
2026-04-19 05:40 14.18240 121.50761 12675 ft 243 kts 132°
2026-04-19 05:41 14.17090 121.51965 13133 ft 229 kts 131°
2026-04-19 05:41 14.15993 121.53126 13165 ft 234 kts 130°
2026-04-19 05:41 14.14816 121.54387 12957 ft 250 kts 131°
2026-04-19 05:41 14.13629 121.55655 13343 ft 238 kts 131°
2026-04-19 05:42 14.12846 121.56489 13668 ft 229 kts 131°
2026-04-19 05:42 14.11908 121.57837 13523 ft 237 kts 110°
2026-04-19 05:42 14.11349 121.59561 13290 ft 266 kts 113°
2026-04-19 05:42 14.10340 121.61135 13890 ft 274 kts 135°
2026-04-19 05:43 14.08695 121.62278 14036 ft 297 kts 148°
2026-04-19 05:43 14.06844 121.63392 14157 ft 319 kts 148°
2026-04-19 05:43 14.04861 121.64587 14268 ft 340 kts 148°
2026-04-19 05:43 14.02755 121.65862 14387 ft 361 kts 148°
2026-04-19 05:44 14.00687 121.67325 14693 ft 370 kts 140°
2026-04-19 05:44 13.98719 121.69062 15200 ft 374 kts 136°
2026-04-19 05:44 13.96842 121.70931 15740 ft 377 kts 133°
2026-04-19 05:44 13.94994 121.72863 16252 ft 380 kts 133°
2026-04-19 05:45 13.93133 121.74816 16769 ft 384 kts 133°
2026-04-19 05:45 13.91239 121.76765 17296 ft 387 kts 134°
2026-04-19 05:45 13.89305 121.78707 17814 ft 390 kts 135°
2026-04-19 05:45 13.87332 121.80648 18297 ft 394 kts 136°
2026-04-19 05:46 13.85196 121.82426 18729 ft 397 kts 143°
2026-04-19 05:46 13.82957 121.84099 19178 ft 399 kts 143°
2026-04-19 05:46 13.80707 121.85781 19635 ft 401 kts 143°
2026-04-19 05:46 13.78444 121.87479 20095 ft 403 kts 143°
2026-04-19 05:47 13.76178 121.89191 20532 ft 406 kts 143°
2026-04-19 05:47 13.73897 121.90911 20989 ft 408 kts 143°
2026-04-19 05:47 13.71602 121.92640 21446 ft 410 kts 144°
2026-04-19 05:47 13.69298 121.94378 21907 ft 412 kts 144°
2026-04-19 05:48 13.66984 121.96124 22362 ft 413 kts 144°
2026-04-19 05:48 13.64662 121.97874 22801 ft 415 kts 144°
2026-04-19 05:48 13.62325 121.99636 23219 ft 417 kts 144°
2026-04-19 05:48 13.59977 122.01406 23605 ft 419 kts 144°
2026-04-19 05:49 13.57618 122.03181 23942 ft 421 kts 144°
2026-04-19 05:49 13.55248 122.04961 24269 ft 423 kts 144°
2026-04-19 05:49 13.52868 122.06755 24598 ft 425 kts 144°
2026-04-19 05:49 13.50477 122.08556 24925 ft 427 kts 144°
2026-04-19 05:50 13.48075 122.10362 25251 ft 429 kts 144°
2026-04-19 05:50 13.45663 122.12175 25570 ft 431 kts 144°
2026-04-19 05:50 13.43241 122.13996 25887 ft 432 kts 144°
2026-04-19 05:50 13.40808 122.15826 26195 ft 434 kts 144°
2026-04-19 05:51 13.38369 122.17661 26493 ft 436 kts 144°
2026-04-19 05:51 13.35916 122.19506 26787 ft 437 kts 145°
2026-04-19 05:51 13.33458 122.21356 27080 ft 439 kts 145°
2026-04-19 05:51 13.30991 122.23210 27364 ft 440 kts 145°
2026-04-19 05:52 13.28507 122.25076 27661 ft 442 kts 145°
2026-04-19 05:52 13.26020 122.26941 27928 ft 444 kts 145°
2026-04-19 05:52 13.23553 122.28791 28197 ft 445 kts 145°
2026-04-19 05:52 13.21042 122.30672 28467 ft 447 kts 145°
2026-04-19 05:53 13.18528 122.32556 28735 ft 448 kts 145°
2026-04-19 05:53 13.16000 122.34452 28998 ft 450 kts 145°
2026-04-19 05:53 13.13468 122.36352 29248 ft 452 kts 145°
2026-04-19 05:53 13.10925 122.38259 29498 ft 453 kts 145°
2026-04-19 05:54 13.08370 122.40175 29753 ft 455 kts 145°
2026-04-19 05:54 13.05811 122.42093 29979 ft 456 kts 145°
2026-04-19 05:54 13.03245 122.44014 30177 ft 457 kts 145°
2026-04-19 05:54 13.00704 122.45917 30359 ft 459 kts 145°
2026-04-19 05:55 12.98116 122.47854 30541 ft 460 kts 145°
2026-04-19 05:55 12.95524 122.49790 30722 ft 462 kts 145°
2026-04-19 05:55 12.92922 122.51734 30896 ft 463 kts 145°
2026-04-19 05:55 12.90311 122.53685 31074 ft 464 kts 145°
2026-04-19 05:56 12.87708 122.55633 31327 ft 463 kts 145°
2026-04-19 05:56 12.85107 122.57579 31572 ft 463 kts 145°
2026-04-19 05:56 12.82507 122.59522 31820 ft 462 kts 145°
2026-04-19 05:56 12.79910 122.61462 32064 ft 462 kts 145°
2026-04-19 05:57 12.77314 122.63406 32306 ft 462 kts 145°
2026-04-19 05:57 12.74812 122.65280 32548 ft 461 kts 145°
2026-04-19 05:57 12.72219 122.67217 32790 ft 461 kts 145°
2026-04-19 05:58 12.67077 122.71053 32897 ft 451 kts 145°
2026-04-19 05:58 12.62063 122.74795 32897 ft 447 kts 145°
2026-04-19 05:59 12.57032 122.78547 32898 ft 446 kts 145°
2026-04-19 05:59 12.52011 122.82285 32892 ft 446 kts 145°
2026-04-19 06:00 12.46985 122.86026 32894 ft 446 kts 145°
2026-04-19 06:00 12.41967 122.89764 32898 ft 446 kts 145°
2026-04-19 06:01 12.36951 122.93491 32893 ft 445 kts 145°
2026-04-19 06:01 12.31946 122.97213 32892 ft 444 kts 145°
2026-04-19 06:02 12.26953 123.00928 32892 ft 444 kts 145°
2026-04-19 06:02 12.21990 123.04613 32897 ft 443 kts 145°
2026-04-19 06:03 12.16997 123.08314 32894 ft 443 kts 146°
2026-04-19 06:03 12.12012 123.12008 32892 ft 442 kts 145°
2026-04-19 06:04 12.07178 123.15603 32893 ft 442 kts 145°
2026-04-19 06:04 12.02204 123.19297 32891 ft 441 kts 146°
2026-04-19 06:05 11.97267 123.22953 32890 ft 441 kts 146°
2026-04-19 06:05 11.92296 123.26630 32892 ft 441 kts 146°
2026-04-19 06:06 11.87327 123.30310 32895 ft 441 kts 146°
2026-04-19 06:06 11.82363 123.33996 32897 ft 441 kts 146°
2026-04-19 06:07 11.77403 123.37677 32896 ft 440 kts 146°
2026-04-19 06:07 11.72443 123.41338 32892 ft 440 kts 146°
2026-04-19 06:08 11.67484 123.44989 32888 ft 439 kts 146°
2026-04-19 06:08 11.62572 123.48620 32882 ft 438 kts 146°
2026-04-19 06:09 11.59263 123.51065 32877 ft 438 kts 146°
2026-04-19 06:09 11.53527 123.55305 32874 ft 438 kts 146°
2026-04-19 06:10 11.47754 123.59557 32869 ft 437 kts 146°
2026-04-19 06:10 11.42825 123.63202 32871 ft 437 kts 146°
2026-04-19 06:11 11.37925 123.66812 32869 ft 438 kts 146°
2026-04-19 06:11 11.32993 123.70445 32868 ft 437 kts 146°
2026-04-19 06:12 11.25584 123.75902 32868 ft 437 kts 146°
2026-04-19 06:12 11.21485 123.78923 32864 ft 438 kts 146°
2026-04-19 06:13 11.16539 123.82541 32865 ft 437 kts 149°
2026-04-19 06:13 11.11032 123.84989 32865 ft 431 kts 168°
2026-04-19 06:14 11.05125 123.86044 32863 ft 431 kts 172°
2026-04-19 06:14 10.99207 123.87069 32866 ft 431 kts 172°
2026-04-19 06:15 10.93327 123.88090 32869 ft 431 kts 172°
2026-04-19 06:15 10.87411 123.89119 32867 ft 431 kts 172°
2026-04-19 06:16 10.81498 123.90152 32867 ft 431 kts 172°
2026-04-19 06:16 10.75540 123.91191 32880 ft 440 kts 172°
2026-04-19 06:17 10.69455 123.92245 32880 ft 445 kts 172°
2026-04-19 06:17 10.63338 123.93299 32877 ft 446 kts 172°
2026-04-19 06:18 10.57223 123.94354 32876 ft 445 kts 172°
2026-04-19 06:18 10.51154 123.95401 32868 ft 445 kts 172°
2026-04-19 06:19 10.45042 123.96460 32868 ft 445 kts 172°
2026-04-19 06:19 10.38933 123.97517 32865 ft 445 kts 172°
2026-04-19 06:20 10.35881 123.98044 32697 ft 445 kts 172°
2026-04-19 06:20 10.32834 123.98571 31824 ft 441 kts 172°
2026-04-19 06:20 10.29800 123.98944 30765 ft 437 kts 176°
2026-04-19 06:20 10.26776 123.99162 29732 ft 434 kts 176°
2026-04-19 06:21 10.23779 123.99371 28635 ft 430 kts 176°
2026-04-19 06:21 10.20813 123.99574 27632 ft 424 kts 176°
2026-04-19 06:21 10.17885 123.99775 26668 ft 419 kts 176°
2026-04-19 06:21 10.14995 123.99977 25746 ft 414 kts 176°
2026-04-19 06:22 10.12132 124.00178 24859 ft 410 kts 176°
2026-04-19 06:22 10.09306 124.00375 24013 ft 405 kts 176°
2026-04-19 06:22 10.06504 124.00571 23146 ft 401 kts 175°
2026-04-19 06:22 10.03732 124.00766 22226 ft 397 kts 176°
2026-04-19 06:23 10.01029 124.00957 21366 ft 392 kts 176°
2026-04-19 06:23 9.98324 124.01147 20522 ft 387 kts 176°
2026-04-19 06:23 9.95646 124.01335 19709 ft 383 kts 176°
2026-04-19 06:23 9.93000 124.01521 18904 ft 379 kts 176°
2026-04-19 06:24 9.90377 124.01558 18121 ft 375 kts 186°
2026-04-19 06:24 9.87860 124.00972 17268 ft 370 kts 201°
2026-04-19 06:24 9.85510 123.99945 16429 ft 366 kts 204°
2026-04-19 06:24 9.83192 123.98906 15652 ft 362 kts 204°
2026-04-19 06:25 9.80904 123.97884 14904 ft 358 kts 204°
2026-04-19 06:25 9.78631 123.96874 14308 ft 353 kts 204°
2026-04-19 06:25 9.76430 123.95898 13938 ft 338 kts 204°
2026-04-19 06:25 9.74314 123.94958 13508 ft 326 kts 204°
2026-04-19 06:26 9.72271 123.94050 13080 ft 315 kts 204°
2026-04-19 06:26 9.70300 123.93172 12678 ft 304 kts 204°
2026-04-19 06:26 9.68387 123.92321 12294 ft 300 kts 203°
2026-04-19 06:26 9.66471 123.91470 11905 ft 301 kts 203°
2026-04-19 06:27 9.64552 123.90617 11513 ft 301 kts 203°
2026-04-19 06:27 9.62636 123.89745 11129 ft 302 kts 204°
2026-04-19 06:27 9.60740 123.88805 10731 ft 303 kts 206°
2026-04-19 06:27 9.58882 123.87843 10340 ft 304 kts 206°
2026-04-19 06:28 9.57009 123.86857 10073 ft 300 kts 206°
2026-04-19 06:28 9.55157 123.85881 9957 ft 300 kts 206°
2026-04-19 06:28 9.53292 123.84905 9541 ft 303 kts 206°
2026-04-19 06:28 9.51424 123.83933 9164 ft 301 kts 206°
2026-04-19 06:29 9.49561 123.82968 8800 ft 299 kts 206°
2026-04-19 06:29 9.47709 123.82013 8389 ft 298 kts 206°
2026-04-19 06:29 9.45880 123.81077 7885 ft 292 kts 206°
2026-04-19 06:29 9.44069 123.80154 7435 ft 292 kts 206°
2026-04-19 06:30 9.42256 123.79226 6998 ft 292 kts 206°
2026-04-19 06:30 9.40443 123.78296 6576 ft 292 kts 206°
2026-04-19 06:30 9.38704 123.77290 6135 ft 283 kts 219°
2026-04-19 06:30 9.37523 123.75772 5725 ft 271 kts 246°
2026-04-19 06:31 9.37126 123.73960 5315 ft 260 kts 272°
2026-04-19 06:31 9.37513 123.72220 4891 ft 250 kts 297°
2026-04-19 06:31 9.38377 123.70729 4489 ft 242 kts 302°
2026-04-19 06:31 9.39264 123.69277 4092 ft 243 kts 308°
2026-04-19 06:32 9.40561 123.68246 3690 ft 236 kts 342°
2026-04-19 06:32 9.42141 123.68131 3342 ft 225 kts 14°
2026-04-19 06:32 9.43524 123.68784 3020 ft 216 kts 30°
2026-04-19 06:32 9.44797 123.69542 2705 ft 211 kts 30°
2026-04-19 06:33 9.46062 123.70295 2400 ft 211 kts 30°
2026-04-19 06:33 9.47303 123.71033 2082 ft 201 kts 30°
2026-04-19 06:33 9.48498 123.71746 1812 ft 197 kts 30°
2026-04-19 06:33 9.49603 123.72408 1593 ft 178 kts 30°
2026-04-19 06:34 9.50621 123.73019 1358 ft 162 kts 30°
2026-04-19 06:34 9.51549 123.73573 1134 ft 149 kts 30°
2026-04-19 06:34 9.52427 123.74098 940 ft 145 kts 30°
2026-04-19 06:34 9.53286 123.74610 766 ft 142 kts 31°
2026-04-19 06:35 9.54137 123.75119 575 ft 142 kts 31°
2026-04-19 06:35 9.54991 123.75630 390 ft 142 kts 31°
2026-04-19 06:35 9.55842 123.76137 191 ft 142 kts 31°
2026-04-19 06:35 9.56684 123.76634 53 ft 133 kts 31°
2026-04-19 06:36 9.57266 123.76997 50 ft 56 kts 33°
2026-04-19 06:36 9.57368 123.77067 48 ft 0 kts 34°